Tracking 19170 objects as of 22-May-2018
HD Live streaming from Space Station
objects crossing your sky now

INTELSAT 6B (PAS 6B)

Track INTELSAT 6B (PAS 6B) now!
INTELSAT 6B (PAS 6B) is classified as:


NORAD ID: 25585
Int'l Code: 1998-075A
Perigee: 36,050.5 km
Apogee: 36,171.7 km
Inclination: 7.8 °
Period: 1,452.3 minutes
Semi major axis: 42482 km
RCS: 21.1435 m2 (large)
Launch date: December 22, 1998
Source: United States (US)
Launch site: FRENCH GUIANA (FRGUI)

voice and video communcations; 32 Ku-band; South America.
aabbcc
Your satellite tracking list
Your tracking list is empty




NASA's NSSDC Master Catalog

Two Line Element Set (TLE):
1 25585U 98075A   18141.86354906 -.00000026  00000-0  00000+0 0  9998
2 25585   7.8261  49.2661 0014260  88.8394 138.5312  0.99150371 70760
Source of the keplerian elements: AFSPC